2023/09/20 00:00:00, 1.3,20.1
2023/09/20 00:10:00, 1.4,20.0
2023/09/20 00:20:00, 1.6,20.1
2023/09/20 00:30:00, 1.6,19.9
2023/09/20 00:40:00, 1.5,20.0
2023/09/20 00:50:00, 1.5,19.9
2023/09/20 01:00:00, 0.0,19.7
2023/09/20 01:10:00,---,19.9
2023/09/20 01:20:00, 0.0,20.0
2023/09/20 01:30:00, 0.0,20.1
2023/09/20 01:40:00, 0.0,20.2
2023/09/20 01:50:00, 0.0,20.3
2023/09/20 02:00:00, 0.0,20.0
2023/09/20 02:10:00, 0.0,20.1
2023/09/20 02:20:00, 0.0,20.2
2023/09/20 02:30:00, 0.0,20.2
2023/09/20 02:40:00, 1.7,20.0
2023/09/20 02:50:00,---,20.1
2023/09/20 03:00:00, 0.0,20.1
2023/09/20 03:10:00, 1.7,19.8
2023/09/20 03:20:00, 1.6,20.2
2023/09/20 03:30:00, 1.7,20.3
2023/09/20 03:40:00, 1.6,20.2
2023/09/20 03:50:00, 1.4,20.2
2023/09/20 04:00:00, 1.4,20.2
2023/09/20 04:10:00, 1.3,19.9
2023/09/20 04:20:00, 1.4,19.8
2023/09/20 04:30:00, 1.6,19.2
2023/09/20 04:40:00, 1.6,19.7
2023/09/20 04:50:00, 1.4,19.7
2023/09/20 05:00:00, 1.4,19.6
2023/09/20 05:10:00, 0.0,19.8
2023/09/20 05:20:00,---,19.5
2023/09/20 05:30:00, 0.0,19.4
2023/09/20 05:40:00, 0.0,19.4
2023/09/20 05:50:00, 0.0,19.5
2023/09/20 06:00:00, 0.0,19.8
2023/09/20 06:10:00, 0.0,20.0
2023/09/20 06:20:00, 0.0,19.9
2023/09/20 06:30:00, 0.0,20.0
2023/09/20 06:40:00, 0.0,19.8
2023/09/20 06:50:00, 0.0,20.0
2023/09/20 07:00:00, 1.7,20.1
2023/09/20 07:10:00, 1.7,20.4
2023/09/20 07:20:00, 1.6,20.4
2023/09/20 07:30:00, 0.0,21.4
2023/09/20 07:40:00,---,22.3
2023/09/20 07:50:00, 0.4,23.0
2023/09/20 08:00:00, 0.4,23.6
2023/09/20 08:10:00, 0.4,23.8
2023/09/20 08:20:00, 0.3,24.4
2023/09/20 08:30:00, 0.2,25.3
2023/09/20 08:40:00, 0.1,24.9
2023/09/20 08:50:00, 0.3,24.2
2023/09/20 09:00:00, 0.2,24.2
2023/09/20 09:10:00, 0.1,25.1
2023/09/20 09:20:00, 0.2,24.9
2023/09/20 09:30:00, 0.2,25.5
2023/09/20 09:40:00, 0.1,25.7
2023/09/20 09:50:00, 0.2,24.8
2023/09/20 10:00:00, 0.1,25.4
2023/09/20 10:10:00, 0.1,25.9
2023/09/20 10:20:00, 0.0,26.3
2023/09/20 10:30:00, 0.0,26.2
2023/09/20 10:40:00, 0.0,27.6
2023/09/20 10:50:00, 0.0,27.6
2023/09/20 11:00:00, 0.0,27.4
2023/09/20 11:10:00, 0.0,26.4
2023/09/20 11:20:00, 0.0,27.3
2023/09/20 11:30:00, 0.0,28.1
2023/09/20 11:40:00, 0.0,28.1
2023/09/20 11:50:00, 0.0,27.7
2023/09/20 12:00:00, 0.0,27.6
2023/09/20 12:10:00, 0.1,27.5
2023/09/20 12:20:00, 0.1,27.4
2023/09/20 12:30:00, 0.1,27.7
2023/09/20 12:40:00, 0.1,27.5
2023/09/20 12:50:00, 0.2,26.6
2023/09/20 13:00:00, 0.1,25.6
2023/09/20 13:10:00, 0.2,25.1
2023/09/20 13:20:00, 0.1,25.8
2023/09/20 13:30:00, 0.1,27.0
2023/09/20 13:40:00, 0.2,26.1
2023/09/20 13:50:00, 0.4,26.1
2023/09/20 14:00:00, 0.3,25.2
2023/09/20 14:10:00, 0.3,24.8
2023/09/20 14:20:00, 0.4,25.1
2023/09/20 14:30:00, 0.2,25.4
2023/09/20 14:40:00, 0.2,26.0
2023/09/20 14:50:00, 0.3,25.9
2023/09/20 15:00:00, 0.2,25.8
2023/09/20 15:10:00, 0.1,25.9
2023/09/20 15:20:00, 0.1,25.6
2023/09/20 15:30:00, 0.1,25.7
2023/09/20 15:40:00, 0.1,25.8
2023/09/20 15:50:00, 0.1,25.3
2023/09/20 16:00:00, 0.3,25.0
2023/09/20 16:10:00, 0.3,25.1
2023/09/20 16:20:00, 0.3,24.3
2023/09/20 16:30:00, 0.4,24.3
2023/09/20 16:40:00, 0.5,24.2
2023/09/20 16:50:00, 0.6,23.8
2023/09/20 17:00:00, 0.6,23.7
2023/09/20 17:10:00, 0.6,23.4
2023/09/20 17:20:00, 0.6,23.3
2023/09/20 17:30:00, 0.6,22.9
2023/09/20 17:40:00, 0.6,22.6
2023/09/20 17:50:00, 0.7,22.5
2023/09/20 18:00:00, 0.8,22.5
2023/09/20 18:10:00, 0.9,21.7
2023/09/20 18:20:00, 0.9,21.9
2023/09/20 18:30:00, 1.3,21.2
2023/09/20 18:40:00, 1.2,21.3
2023/09/20 18:50:00, 0.8,21.8
2023/09/20 19:00:00, 0.7,21.7
2023/09/20 19:10:00, 0.7,22.1
2023/09/20 19:20:00, 0.7,22.8
2023/09/20 19:30:00, 0.6,22.7
2023/09/20 19:40:00, 0.6,23.0
2023/09/20 19:50:00, 0.5,22.7
2023/09/20 20:00:00, 0.5,22.7
2023/09/20 20:10:00, 0.5,22.6
2023/09/20 20:20:00, 0.5,22.7
2023/09/20 20:30:00, 0.5,22.5
2023/09/20 20:40:00, 0.5,22.0
2023/09/20 20:50:00, 0.4,22.3
2023/09/20 21:00:00, 0.5,22.1
2023/09/20 21:10:00, 0.5,22.6
2023/09/20 21:20:00, 0.4,22.6
2023/09/20 21:30:00, 0.4,22.6
2023/09/20 21:40:00, 0.4,22.7
2023/09/20 21:50:00, 0.4,22.3
2023/09/20 22:00:00, 0.5,22.1
2023/09/20 22:10:00, 0.5,23.0
2023/09/20 22:20:00, 0.5,22.9
2023/09/20 22:30:00, 0.4,22.9
2023/09/20 22:40:00, 0.5,23.0
2023/09/20 22:50:00, 0.4,22.9
2023/09/20 23:00:00, 0.4,22.7
2023/09/20 23:10:00, 0.4,22.7
2023/09/20 23:20:00, 0.4,22.8
2023/09/20 23:30:00, 0.4,23.0
2023/09/20 23:40:00, 0.6,22.6
2023/09/20 23:50:00, 0.0,22.3
